Erie, PA

2:43 PM EDT on June 28, 2017 (GMT -0400)
Erie International

Weather History for KERI - December, 2013

Change the Weather History Date:

Wednesday, December 11, 2013

  Actual Average Record
Temperature  
Mean Temperature 22 °F 34 °F  
Max Temperature 25 °F 39 °F 61 °F (1979)
Min Temperature 19 °F 28 °F 5 °F (1977)
Degree Days  
Heating Degree Days 43 31  
Month to date heating degree days 347 325  
Since 1 July heating degree days 1546 1481  
Cooling Degree Days 0 0  
Month to date cooling degree days 0 0  
Year to date cooling degree days 706 638  
Moisture  
Dew Point 16 °F    
Average Humidity 75    
Maximum Humidity 92    
Minimum Humidity 57    
Precipitation  
Precipitation 0.25 in 0.13 in 1.20 in (1944)
Month to date precipitation 0.62 1.38  
Year to date precipitation 49.12 39.80  
Snow  
Snow 4.80 in 0.80 in - ()
Month to date snowfall 8.2 7.8  
Since 1 July snowfall 23.8 16.5  
Snow Depth 2.00 in    
Sea Level Pressure  
Sea Level Pressure 30.24 in    
Wind  
Wind Speed 15 mph (SW)    
Max Wind Speed 22 mph    
Max Gust Speed 31 mph    
Visibility 3 miles    
Events Fog , Snow    
T = Trace of Precipitation, MM = Missing Value Source: NWS Daily Summary

Daily Weather History Graph

Daily Weather History Graph

Search for Another Location

Airport or City:

Trip Planner

Search our weather history database for the weather conditions in past years. The results will help you decide how hot, cold, wet, or windy it might be!

Date:

Astronomy

Dec. 11, 2013 Rise Set
Actual Time 7:39 AM EST 4:49 PM EST
Civil Twilight 7:07 AM EST 5:20 PM EST
Nautical Twilight 6:32 AM EST 5:55 PM EST
Astronomical Twilight 5:58 AM EST 6:29 PM EST
Moon 1:26 PM EST (12/11) 1:53 AM EST (12/11)
Length of Visible Light 10h 13m
Length of Day
9h 09m
Waxing Gibbous, 71% of the Moon is Illuminated
Dec 11
Waxing Gibbous
Dec 17
Full
Dec 25
Last Quarter
Jan 1
New
Jan 7
First Quarter

Hourly Weather History & Observations

Time (EST) Temp. Windchill Dew Point Humidity Pressure Visibility Wind Dir Wind Speed Gust Speed Precip Events Conditions
12:25 AM 23.0 °F 10.6 °F 17.6 °F 80% 30.15 in 2.0 mi SW 13.8 mph 23.0 mph 0.00 in Snow Light Snow
12:43 AM 23.0 °F 9.6 °F 17.6 °F 80% 30.16 in 1.8 mi SW 16.1 mph 25.3 mph 0.00 in Snow Light Snow
12:51 AM 21.9 °F 7.8 °F 17.1 °F 82% 30.19 in 1.5 mi SW 17.3 mph 23.0 mph 0.00 in Snow Light Snow
1:51 AM 21.9 °F 7.3 °F 16.0 °F 78% 30.19 in 2.0 mi SW 18.4 mph 23.0 mph 0.00 in Snow Light Snow
2:10 AM 21.2 °F 8.9 °F 15.8 °F 80% 30.17 in 3.0 mi SSW 12.7 mph - 0.00 in Snow Light Snow
2:26 AM 21.2 °F 6.8 °F 15.8 °F 80% 30.17 in 3.0 mi SW 17.3 mph 20.7 mph 0.00 in Snow Light Snow
2:51 AM 23.0 °F 9.2 °F 15.1 °F 72% 30.22 in 4.0 mi SSW 17.3 mph 23.0 mph 0.00 in Snow Light Snow
3:51 AM 21.9 °F 7.3 °F 15.1 °F 75% 30.24 in 4.0 mi SSW 18.4 mph 31.1 mph 0.00 in Snow Light Snow
4:31 AM 21.2 °F 7.3 °F 15.8 °F 80% 30.19 in 2.5 mi SSW 16.1 mph - 0.00 in Snow Light Snow
4:40 AM 21.2 °F 8.3 °F 15.8 °F 80% 30.19 in 3.0 mi SSW 13.8 mph - 0.00 in Snow Light Snow
4:51 AM 21.0 °F 8.1 °F 15.1 °F 78% 30.23 in 3.0 mi SSW 13.8 mph - 0.00 in Snow Light Snow
4:58 AM 21.2 °F 7.8 °F 15.8 °F 80% 30.20 in 2.5 mi SSW 15.0 mph - 0.00 in Snow Light Snow
5:08 AM 21.2 °F 8.3 °F 15.8 °F 80% 30.20 in 1.5 mi SSW 13.8 mph 23.0 mph 0.00 in Snow Light Snow
5:25 AM 21.2 °F 8.3 °F 15.8 °F 80% 30.21 in 2.0 mi SSW 13.8 mph 21.9 mph 0.00 in Snow Light Snow
5:37 AM 21.2 °F 7.8 °F 15.8 °F 80% 30.21 in 1.5 mi SSW 15.0 mph 24.2 mph 0.00 in Snow Light Snow
5:51 AM 21.0 °F 8.1 °F 15.1 °F 78% 30.25 in 1.5 mi SSW 13.8 mph - 0.00 in Snow Light Snow
6:21 AM 21.2 °F 7.8 °F 14.0 °F 74% 30.23 in 2.0 mi SW 15.0 mph 25.3 mph 0.00 in Snow Light Snow
6:32 AM 21.2 °F 6.8 °F 14.0 °F 74% 30.23 in 4.0 mi SW 17.3 mph 25.3 mph 0.00 in Snow Light Snow
6:40 AM 21.2 °F 7.8 °F 12.2 °F 68% 30.23 in 5.0 mi SW 15.0 mph 24.2 mph 0.00 in Snow Light Snow
6:51 AM 21.0 °F 8.1 °F 14.0 °F 74% 30.27 in 3.0 mi SW 13.8 mph 24.2 mph 0.00 in Snow Light Snow
7:33 AM 21.2 °F 7.3 °F 12.2 °F 68% 30.23 in 2.5 mi SSW 16.1 mph 31.1 mph 0.00 in Snow Light Snow
7:47 AM 21.2 °F 6.0 °F 12.2 °F 68% 30.23 in 4.0 mi SSW 19.6 mph 24.2 mph 0.00 in   Haze
7:51 AM 21.0 °F 6.6 °F 12.9 °F 71% 30.27 in 6.0 mi SSW 17.3 mph 24.2 mph 0.00 in   Haze
8:51 AM 21.0 °F 6.2 °F 12.0 °F 68% 30.27 in 10.0 mi SSW 18.4 mph 24.2 mph N/A   Overcast
9:51 AM 21.9 °F 9.2 °F 12.9 °F 68% 30.30 in 10.0 mi SW 13.8 mph - N/A   Overcast
10:51 AM 21.9 °F 8.2 °F 14.0 °F 72% 30.29 in 2.0 mi SW 16.1 mph 27.6 mph 0.00 in Snow Light Snow
10:59 AM 21.2 °F 5.6 °F 15.8 °F 80% 30.25 in 1.5 mi SSW 20.7 mph 27.6 mph 0.00 in Snow Light Snow
11:32 AM 21.2 °F 6.0 °F 15.8 °F 80% 30.25 in 1.5 mi SSW 19.6 mph 25.3 mph 0.00 in Snow Light Snow
11:51 AM 21.9 °F 7.8 °F 15.1 °F 75% 30.28 in 1.5 mi SSW 17.3 mph - 0.00 in Snow Light Snow
12:36 PM 23.0 °F 8.0 °F 15.8 °F 74% 30.22 in 2.0 mi SSW 20.7 mph 26.5 mph 0.00 in Snow Light Snow
12:51 PM 23.0 °F 9.2 °F 16.0 °F 74% 30.25 in 2.0 mi SW 17.3 mph 25.3 mph 0.00 in Snow Light Snow
1:04 PM 23.0 °F 10.1 °F 15.8 °F 74% 30.21 in 2.0 mi SW 15.0 mph 23.0 mph 0.00 in Snow Light Snow
1:13 PM 23.0 °F 9.2 °F 15.8 °F 74% 30.21 in 3.0 mi SSW 17.3 mph - 0.00 in Snow Light Snow
1:33 PM 23.0 °F 8.7 °F 15.8 °F 74% 30.20 in 2.0 mi SSW 18.4 mph 23.0 mph 0.00 in Snow Light Snow
1:42 PM 23.0 °F 10.1 °F 15.8 °F 74% 30.20 in 1.8 mi SSW 15.0 mph 24.2 mph 0.00 in Snow Light Snow
1:49 PM 23.0 °F 9.6 °F 15.8 °F 74% 30.20 in 2.0 mi SW 16.1 mph - 0.00 in Snow Light Snow
1:51 PM 23.0 °F 10.6 °F 16.0 °F 74% 30.24 in 2.0 mi SSW 13.8 mph - 0.00 in Snow Light Snow
2:00 PM 23.0 °F 9.2 °F 15.8 °F 74% 30.20 in 1.8 mi SW 17.3 mph 23.0 mph 0.00 in Snow Light Snow
2:09 PM 23.0 °F 9.2 °F 15.8 °F 74% 30.20 in 2.0 mi SSW 17.3 mph 24.2 mph 0.00 in Snow Light Snow
2:22 PM 23.0 °F 10.1 °F 15.8 °F 74% 30.20 in 4.0 mi SW 15.0 mph - 0.00 in   Haze
2:40 PM 23.0 °F 9.6 °F 15.8 °F 74% 30.20 in 2.0 mi SSW 16.1 mph - 0.00 in Snow Light Snow
2:49 PM 23.0 °F 9.6 °F 15.8 °F 74% 30.20 in 2.5 mi SSW 16.1 mph - 0.00 in Snow Light Snow
2:51 PM 23.0 °F 9.6 °F 16.0 °F 74% 30.24 in 2.5 mi SSW 16.1 mph - 0.00 in Snow Light Snow
3:01 PM 23.0 °F 10.6 °F 17.6 °F 80% 30.20 in 1.2 mi SSW 13.8 mph - 0.00 in Snow Light Snow
3:51 PM 23.0 °F 9.2 °F 17.1 °F 78% 30.24 in 1.5 mi SSW 17.3 mph 21.9 mph 0.00 in Snow Light Snow
4:04 PM 23.0 °F 10.6 °F 17.6 °F 80% 30.21 in 0.5 mi SW 13.8 mph - 0.00 in Snow Snow
4:16 PM 21.2 °F 10.9 °F 17.6 °F 86% 30.21 in 0.8 mi SW 9.2 mph - 0.00 in Snow Light Snow
4:22 PM 23.0 °F 10.6 °F 17.6 °F 80% 30.21 in 0.8 mi SW 13.8 mph 17.3 mph 0.00 in Snow Light Snow
4:31 PM 21.2 °F 12.6 °F 19.4 °F 93% 30.21 in 0.2 mi WSW 6.9 mph - 0.01 in Fog , Snow Snow
4:44 PM 21.2 °F 10.9 °F 19.4 °F 93% 30.22 in 0.2 mi WSW 9.2 mph - 0.03 in Fog , Snow Snow
4:51 PM 21.9 °F 12.5 °F 19.0 °F 89% 30.25 in 0.2 mi SW 8.1 mph - 0.03 in Fog , Snow Snow
5:27 PM 23.0 °F 13.9 °F 19.4 °F 86% 30.22 in 0.2 mi WSW 8.1 mph - 0.06 in Fog , Snow Heavy Snow
5:43 PM 23.0 °F 12.4 °F 19.4 °F 86% 30.22 in 1.0 mi WNW 10.4 mph 16.1 mph 0.10 in Snow Light Snow
5:51 PM 24.1 °F 14.4 °F 19.9 °F 84% 30.26 in 1.5 mi West 9.2 mph 21.9 mph 0.10 in Snow Light Snow
5:56 PM 24.8 °F 14.0 °F 19.4 °F 80% 30.22 in 2.5 mi West 11.5 mph 21.9 mph 0.00 in Snow Light Snow
6:03 PM 24.8 °F 13.4 °F 17.6 °F 74% 30.22 in 4.0 mi West 12.7 mph 18.4 mph 0.00 in Snow Light Snow
6:14 PM 24.8 °F 13.4 °F 17.6 °F 74% 30.22 in 2.5 mi WNW 12.7 mph 25.3 mph 0.00 in Snow Light Snow
6:22 PM 24.8 °F 11.9 °F 17.6 °F 74% 30.22 in 8.0 mi WNW 16.1 mph 26.5 mph 0.00 in   Overcast
6:51 PM 24.1 °F 13.1 °F 17.1 °F 75% 30.27 in 10.0 mi WNW 11.5 mph 21.9 mph 0.00 in   Overcast
7:01 PM 24.8 °F 14.6 °F 19.4 °F 80% 30.24 in 5.0 mi NW 10.4 mph 17.3 mph 0.00 in Snow Light Snow
7:08 PM 24.8 °F 12.4 °F 19.4 °F 80% 30.25 in 2.5 mi NW 15.0 mph 19.6 mph 0.00 in Snow Light Snow
7:30 PM 24.8 °F 13.4 °F 19.4 °F 80% 30.25 in 5.0 mi NW 12.7 mph 19.6 mph 0.00 in Snow Light Snow
7:46 PM 23.0 °F 11.1 °F 17.6 °F 80% 30.26 in 2.0 mi NW 12.7 mph - 0.00 in Snow Light Snow
7:51 PM 21.9 °F 9.8 °F 18.0 °F 85% 30.30 in 0.8 mi NW 12.7 mph - 0.00 in Snow Light Snow
7:54 PM 21.2 °F 7.8 °F 17.6 °F 86% 30.26 in 0.5 mi NNW 15.0 mph 20.7 mph 0.00 in Fog , Snow Snow
8:13 PM 21.2 °F 7.8 °F 17.6 °F 86% 30.27 in 0.8 mi NNW 15.0 mph 24.2 mph 0.00 in Snow Light Snow
8:22 PM 21.2 °F 6.8 °F 15.8 °F 80% 30.27 in 1.2 mi NW 17.3 mph 25.3 mph 0.00 in Snow Light Snow
8:49 PM 21.2 °F 10.1 °F 14.0 °F 74% 30.28 in 10.0 mi NW 10.4 mph 20.7 mph 0.00 in   Overcast
8:51 PM 21.9 °F 8.2 °F 14.0 °F 72% 30.32 in 10.0 mi NW 16.1 mph 20.7 mph 0.00 in   Overcast
9:49 PM 21.2 °F 7.3 °F 12.2 °F 68% 30.30 in 7.0 mi WNW 16.1 mph 28.8 mph 0.00 in   Overcast
9:51 PM 21.9 °F 6.9 °F 12.9 °F 68% 30.33 in 6.0 mi WNW 19.6 mph 28.8 mph 0.00 in   Haze
10:51 PM 21.0 °F 8.1 °F 9.0 °F 60% 30.35 in 10.0 mi WNW 13.8 mph 24.2 mph 0.00 in   Overcast
11:51 PM 19.9 °F 6.7 °F 6.1 °F 55% 30.38 in 9.0 mi West 13.8 mph 27.6 mph N/A   Overcast